Wheeler AAF, HI

8:26 AM HST on October 22, 2017 (GMT -1000)
Wheeler Army Air Field

Weather History for PHHI - November, 2012

Change the Weather History Date:

Friday, November 23, 2012

  Actual Average Record
Temperature  
Mean Temperature 72 °F -  
Max Temperature 79 °F 76 °F 86 °F (1999)
Min Temperature 64 °F 65 °F 63 °F (2007)
Cooling Degree Days 6    
Growing Degree Days 22 (Base 50)    
Moisture  
Dew Point 66 °F    
Average Humidity 79    
Maximum Humidity 93    
Minimum Humidity 60    
Precipitation  
Precipitation 0.01 in - - ()
Sea Level Pressure  
Sea Level Pressure 29.92 in    
Wind  
Wind Speed 4 mph (ENE)    
Max Wind Speed 13 mph    
Max Gust Speed -    
Visibility 10 miles    
Events Rain , Thunderstorm    
Averages and records for this station are not official NWS values.
T = Trace of Precipitation, MM = Missing Value Source: NWS Daily Summary

Daily Weather History Graph

Daily Weather History Graph

Search for Another Location

Airport or City:

Trip Planner

Search our weather history database for the weather conditions in past years. The results will help you decide how hot, cold, wet, or windy it might be!

Date:

Astronomy

Nov. 23, 2012 Rise Set
Actual Time 6:48 AM HST 5:48 PM HST
Civil Twilight 6:24 AM HST 6:12 PM HST
Nautical Twilight 5:57 AM HST 6:39 PM HST
Astronomical Twilight 5:30 AM HST 7:06 PM HST
Moon 2:45 PM HST (11/23) 2:45 AM HST (11/23)
Length of Visible Light 11h 47m
Length of Day
10h 59m
Waxing Gibbous, 81% of the Moon is Illuminated
Nov 23
Waxing Gibbous
Nov 28
Full
Dec 6
Last Quarter
Dec 12
New
Dec 19
First Quarter

Hourly Weather History & Observations

Time (HST) Temp. Dew Point Humidity Pressure Visibility Wind Dir Wind Speed Gust Speed Precip Events Conditions
12:55 AM 64.9 °F 63.0 °F 93% 29.95 in 10.0 mi NW 4.6 mph - N/A   Partly Cloudy
1:55 AM 66.9 °F 64.2 °F 91% 29.92 in 10.0 mi North 3.5 mph - N/A   Overcast
2:55 AM 66.6 °F 63.7 °F 90% 29.91 in 10.0 mi Calm Calm - N/A   Scattered Clouds
3:55 AM 66.4 °F 63.7 °F 91% 29.91 in 10.0 mi NNW 3.5 mph - N/A   Clear
4:55 AM 65.1 °F 62.6 °F 92% 29.91 in 10.0 mi Calm Calm - N/A   Mostly Cloudy
5:55 AM 65.5 °F 63.1 °F 92% 29.92 in 10.0 mi NNW 6.9 mph - N/A   Clear
6:55 AM 65.3 °F 63.0 °F 92% 29.94 in 10.0 mi NW 4.6 mph - N/A   Clear
7:55 AM 68.0 °F 64.9 °F 90% 29.95 in 10.0 mi North 3.5 mph - N/A   Clear
8:55 AM 73.6 °F 66.6 °F 79% 29.96 in 10.0 mi Calm Calm - N/A   Clear
9:55 AM 77.2 °F 66.0 °F 68% 29.96 in 10.0 mi Calm Calm - N/A   Clear
10:25 AM 77.0 °F 66.2 °F 69% 29.96 in 10.0 mi NNE 5.8 mph - N/A   Mostly Cloudy
10:38 AM 77.0 °F 64.4 °F 65% 29.96 in 10.0 mi North 6.9 mph - N/A   Mostly Cloudy
10:55 AM 79.3 °F 64.6 °F 60% 29.96 in 10.0 mi North 6.9 mph - N/A   Mostly Cloudy
11:55 AM 79.0 °F 65.5 °F 63% 29.92 in 10.0 mi North 3.5 mph - N/A   Scattered Clouds
12:51 PM 78.8 °F 66.2 °F 65% 29.91 in 10.0 mi SSE 6.9 mph - N/A   Overcast
12:55 PM 78.8 °F 66.7 °F 66% 29.91 in 10.0 mi South 6.9 mph - N/A   Overcast
1:22 PM 78.8 °F 66.2 °F 65% 29.90 in 10.0 mi SSE 4.6 mph - N/A   Overcast
1:30 PM 77.0 °F 66.2 °F 69% 29.89 in 10.0 mi SE 5.8 mph - N/A   Overcast
1:38 PM 77.0 °F 68.0 °F 74% 29.89 in 10.0 mi Variable 3.5 mph - N/A Rain Light Rain
1:52 PM 77.0 °F 68.0 °F 74% 29.89 in 10.0 mi ESE 3.5 mph - N/A   Overcast
1:55 PM 76.5 °F 67.6 °F 74% 29.89 in 10.0 mi Calm Calm - 0.00 in   Overcast
2:09 PM 75.2 °F 68.0 °F 78% 29.89 in 10.0 mi East 3.5 mph - N/A Rain Rain
2:10 PM 75.2 °F 68.0 °F 78% 29.89 in 10.0 mi East 3.5 mph - N/A Rain , Thunderstorm Light Thunderstorms and Rain
2:23 PM 75.2 °F 68.0 °F 78% 29.89 in 10.0 mi ESE 5.8 mph - N/A Thunderstorm Thunderstorm
2:25 PM 73.4 °F 68.0 °F 83% 29.89 in 10.0 mi East 5.8 mph - N/A Thunderstorm Thunderstorm
2:27 PM 73.4 °F 68.0 °F 83% 29.89 in 10.0 mi East 5.8 mph - N/A Thunderstorm Overcast
2:55 PM 74.3 °F 68.5 °F 82% 29.89 in 10.0 mi East 12.7 mph - 0.01 in Thunderstorm Thunderstorm
3:10 PM 75.2 °F 68.0 °F 78% 29.90 in 10.0 mi SE 5.8 mph - N/A Thunderstorm Scattered Clouds
3:11 PM 75.2 °F 68.0 °F 78% 29.90 in 10.0 mi SE 5.8 mph - N/A Thunderstorm Thunderstorm
3:34 PM 75.2 °F 68.0 °F 78% 29.90 in 10.0 mi SE 5.8 mph - N/A Thunderstorm Scattered Clouds
3:55 PM 72.7 °F 64.6 °F 76% 29.90 in 10.0 mi South 4.6 mph - N/A   Mostly Cloudy
4:55 PM 75.6 °F 65.1 °F 70% 29.91 in 10.0 mi Calm Calm - N/A   Clear
5:55 PM 73.8 °F 64.9 °F 74% 29.92 in 10.0 mi Calm Calm - N/A   Clear
6:06 PM 73.4 °F 66.2 °F 78% 29.93 in 10.0 mi East 5.8 mph - N/A   Mostly Cloudy
6:20 PM 73.4 °F 66.2 °F 78% 29.94 in 10.0 mi East 3.5 mph - N/A   Scattered Clouds
6:22 PM 73.4 °F 66.2 °F 78% 29.94 in 10.0 mi East 3.5 mph - N/A   Mostly Cloudy
6:27 PM 73.4 °F 66.2 °F 78% 29.94 in 10.0 mi ENE 4.6 mph - N/A   Scattered Clouds
7:55 PM 68.5 °F 64.2 °F 86% 29.97 in 10.0 mi Calm Calm - N/A   Clear
8:55 PM 68.0 °F 64.0 °F 87% 29.98 in 10.0 mi Calm Calm - N/A   Clear
9:55 PM 66.0 °F 63.1 °F 90% 29.99 in 10.0 mi NW 3.5 mph - N/A   Clear
11:55 PM 65.5 °F 62.2 °F 89% 29.95 in 10.0 mi Calm Calm - N/A   Clear